Terminal Aerodrome Forecast
Issued by NWS Paducah, KY

Home | Current Version | Previous Version | Text Only | Print | Product List | Glossary On
Versions: 1 2 3 4 5 6 7 8 9 10 11 12 13 14 15 16 17 18 19
000
FTUS43 KPAH 030500
TAFPAH
TAF
KPAH 030520Z 0306/0406 00000KT P6SM SCT250
     FM030900 00000KT 4SM BR FEW250
      TEMPO 0309/0312 3/4SM BR SCT002
     FM031300 00000KT 4SM BR SKC
     FM031500 18005KT P6SM SCT040=

USA.gov is the U.S. government's official web portal to all federal, state and local government web resources and services.